sat.trackr.live / text

‹ back to catalog

STARLINK-4683

NORAD 53712 · 2022-107N

PAYLOAD ACTIVE UNKNOWN

§ Identity

Operator
Country
US
Launch date
2022-09-05
Launch site
AFETR
Launch vehicle
Mass (kg)
RCS (m²)

Purposes: comms

External: N2YO · Heavens-Above · Gunter

§ Orbital elements

Epoch: 2026-05-24T18:05:13.728768Z

Period
95.44 min
Inclination
53.2156°
Eccentricity
0.0001321
Mean motion
15.08838169 rev/d
Perigee alt
538.8 km
Apogee alt
540.7 km
Semi-major
6,917.9 km
B*
5.8372e-6
RAAN
267.2021°
Arg perigee
90.4286°
Mean anomaly
269.6858°
Rev number
20,598

§ Raw data

STARLINK-46831 53712U 22107N   26144.75363112 -.00000195  00000+0  58372-5 0  99902 53712  53.2156 267.2021 0001321  90.4286 269.6858 15.08838169205985

JSON: /api/v1/satellites/53712 · /tle

For live sub-satellite position, see the globe view (requires WebGL).

§ Visibility from observer

Set your observer location to see the next 7 days of passes ≥ 10°. The values pass through the URL so the page stays shareable.

No JS? Fill the form by hand. The geolocation button needs JavaScript.